Regional Weather Roundup
Issued by NWS Grand Forks, ND

Home | Current Version | Previous Version | Text Only | Print | Product List | Glossary Off
Versions: 1 2 3 4 5 6 7 8 9 10 11 12 13 14 15 16 17 18 19 20 21 22 23 24 25 26 27 28 29 30 31 32 33 34 35 36 37 38 39 40 41 42 43 44 45 46 47 48 49 50

000
ASUS43 KFGF 240431
RWRFGF
PRAIRIE TO PINES  WEATHER ROUNDUP
NATIONAL WEATHER SERVICE EASTERN NORTH DAKOTA/GRAND FORKS ND
1100 PM CDT WED APR 23 2014

 **SATELLITE DATA USED TO AUGMENT SKY COVER AT AUTOMATED STATIONS**
 *****  WEATHER ACROSS EASTERN NORTH DAKOTA  *****

CITY           SKY/WX    TMP DP  RH WIND       PRES   REMARKS
GRAND FORKS    LGT RAIN  39  37  92 SE18G29   29.84S
GRAND FRKS AFB LGT RAIN  39  37  93 SE16      29.83R
GRAND FRKS NWS   N/A     37 N/A N/A SE15        N/A
DEVILS LAKE    CLOUDY    37  34  87 SE15G21   29.75F
FARGO          CLOUDY    42  37  82 SE21      29.79F
WAHPETON ARPT  CLOUDY    41  34  75 SE17G28   29.81R
$$

 ***** WEATHER ACROSS CENTRAL AND WESTERN NORTH DAKOTA  *****

CITY           SKY/WX    TMP DP  RH WIND       PRES   REMARKS
BISMARCK       MOCLDY    44  32  62 CALM      29.71R
MINOT          CLOUDY    44  42  93 SW3       29.65R
JAMESTOWN      CLOUDY    40  38  93 SE16      29.74S
MINOT AFB      MOCLDY    37  37 100 S6        29.64S FOG
GARRISON         N/A     38  37  97 SE3       29.67R
WILLISTON      PTCLDY    43  37  79 SW3       29.63R
DICKINSON      CLOUDY    38  24  57 S5        29.68R
HETTINGER      MOCLDY    36  28  73 W5        29.73R
$$

 *****  OTHER AIRPORT OBSERVATIONS IN OUR AREA  *****

CITY           SKY/WX    TMP DP  RH WIND       PRES   REMARKS
WALHALLA       MOCLDY    37  37 100 SE20      29.84S
GRAFTON AIRPOR CLOUDY    37  37 100 SE17      29.85S
VALLEY CITY AR CLOUDY    39  39 100 SE17G24   29.75F
CANDO          CLOUDY    37  37 100 SE20      29.74F FOG
CAVALIER APRT  CLOUDY    37  36  93 SE10G23   29.85S
GWINNER        CLOUDY    41  41 100 SE24      29.76R
ROLLA          MIX PCPN  37  37 100 SE20G28   29.73F
 ***** THE ABOVE OBSERVATIONS ARE NON NWS ARE NOT QUALITY
       CONTROLLED AND MAY MIS-REPORT RAIN FOR SNOW...
$$

  *****  WEATHER ACROSS NORTHERN MINNESOTA  *****

CITY           SKY/WX    TMP DP  RH WIND       PRES   REMARKS
FLAG ISLAND    CLOUDY    36  30  80 S8        29.95R
WARROAD        MIX PCPN  39  36  87 S10       29.95S
ROSEAU         LGT RAIN  39  34  81 SE9       29.94S
HALLOCK        LGT RAIN  39  37  93 SE16G24   29.87F
THF RVR FALLS  CLOUDY    37  32  81 E21       29.87F
BAUDETTE       LGT RAIN  41  35  79 S9        29.97R
WASKISH        RAIN      37  36  93 E6        29.96S
CROOKSTON      CLOUDY    37  36  93 SE17      29.85F
$$
  *****  WEATHER ACROSS CENTRAL AND WEST MINNESOTA  *****

CITY           SKY/WX    TMP DP  RH WIND       PRES   REMARKS
FOSSTON        DRIZZLE   34  32  93 E9G22     29.86F
BEMIDJI        LGT SNOW  33  32  98 E6        29.92R
PARK RAPIDS    LGT RAIN  35  35 100 E12       29.89F
ELBOW LAKE     CLOUDY    40  35  83 SE16G25   29.81R
WADENA         LGT RAIN  37  36  93 SE16G22   29.87F
DETROIT LAKES  CLOUDY    37  36  93 SE23      29.83F
MOORHEAD       CLOUDY    43  41  93 SE17G23   29.81S
FERGUS FALLS   CLOUDY    41  34  75 SE18      29.80S
MORRIS MN      CLOUDY    41  36  81 SE21G29   29.78F
STAPLES        CLOUDY    37  36  93 SE10      29.90R
$$
  *****  WEATHER ELSEWHERE ACROSS MINNESOTA  *****

CITY           SKY/WX    TMP DP  RH WIND       PRES   REMARKS
DULUTH         LGT RAIN  36  31  82 E9        30.01S
INTRNTL FALLS  CLOUDY    45  24  43 SE8       29.97R
ELY            CLOUDY    39  19  45 CALM      30.01S
CLOQUET        LGT RAIN  36  34  93 CALM      30.00S
WHEATON        CLOUDY    43  39  87 E22       29.81S
BRAINERD       CLOUDY    42  36  79 E9        29.94F HAZE
HIBBING        LGT SNOW  34  32  92 SE7       30.01R FOG
ALEXANDRIA     CLOUDY    40  36  86 E18G28    29.84S
SAINT CLOUD    CLOUDY    42  37  82 E9G17     29.91F
MINNEAPOLIS    CLOUDY    43  38  82 E13       29.93R
$$

  *****  WEATHER ACROSS SOUTH DAKOTA  *****

CITY           SKY/WX    TMP DP  RH WIND       PRES   REMARKS
SIOUX FALLS    CLOUDY    47  39  74 E17G26    29.69F
BROOKINGS      NOT AVBL
WATERTOWN      CLOUDY    44  38  79 SE13G22   29.72R
HURON          MOCLDY    53  40  61 SE10      29.66R
SISSETON         N/A     41  38  89 SE15      29.76R
ABERDEEN       CLOUDY    45  40  82 SE7       29.72R
MITCHELL       CLOUDY    54  42  64 SE21      29.63R
PIERRE         MOCLDY    50  37  61 NW7       29.72R
MOBRIDGE       MOCLDY    44  37  76 NE6       29.69R
RAPID CITY     MOCLDY    43  31  62 N13       29.78R
$$

  *****  SOME WEATHER IN NEARBY STATES *****

CITY           SKY/WX    TMP DP  RH WIND       PRES   REMARKS
GLASGOW MT     CLEAR     47  25  42 W20       29.65R
GREAT FALLS MT PTCLDY    37  28  70 SW15      29.75S
CHEYENNE WY    CLOUDY    44   6  21 NW17G29   29.91R
SCOTTSBLUFF NE CLOUDY    51  32  48 N15       29.81R
OMAHA NE       LGT RAIN  54  44  69 E9        29.68R
DES MOINES IA  CLOUDY    52  38  58 SE10      29.80R
DAVENPORT IA   CLOUDY    47  39  74 E14       29.97F
CHICAGO IL     LGT RAIN  41  22  46 E12       30.05F
EAU CLAIRE WI  LGT RAIN  42  39  89 E14       29.99F
LA CROSSE WI   CLOUDY    45  39  79 SE10      29.98S
$$

  *****  SOME NATIONAL WEATHER *****

CITY           SKY/WX    TMP DP  RH WIND       PRES   REMARKS
LA GUARDIA NY  PTCLDY    45  30  55 NW22G30   29.82R
RALEIGH NC     CLEAR     56  31  38 NE5       29.99R
ATLANTA GA     CLEAR     59  37  44 NW7       29.95S
NEW ORLEANS LA PTCLDY    70  64  81 SW6       29.93S
OKLAHOMA CITY  TSTM      70  61  73 SE10      29.77S
ALBUQUERQUE NM PTCLDY    57  16  20 NW7       29.91R
SALT LAKE CITY PTCLDY    44  23  43 E8        30.07R
LOS ANGELES CA PTCLDY    62  50  64 W7        29.94R
BOISE ID       CLOUDY    53  30  41 SE9       29.96R
SEATTLE WA     CLOUDY    48  45  89 SE9       29.71F
$$

*** WEATHER ACROSS MANITOBA...SASKATCHEWAN AND ONTARIO ***
                ***ONTARIO***

CITY           SKY/WX    TMP DP  RH WIND       PRES   REMARKS
GERALDTON      PTCLDY    36  19  51 E3        30.10R
THUNDER BAY    CLOUDY    36  28  75 NE8       30.08S
SIOUX LOOKOUT  CLOUDY    45  23  42 SE5       29.99S
TORONTO        CLEAR     36  18  48 NW10      30.08R
BIG TROUT LK   CLOUDY    34  19  55 E7        30.11R
PICKLE LAKE    NOT AVBL
DRYDEN         CLOUDY    45  23  42 SE10      29.98S
KENORA         CLOUDY    46  23  39 SE8       29.95S
$$
                *** MANITOBA***

CITY           SKY/WX    TMP DP  RH WIND       PRES   REMARKS
BRANDON        LGT RAIN  37  36  93 SE23G31   29.77F
DAUPHIN        LGT RAIN  41  37  87 SE20G26   29.80S
ISLAND LAKE    CLEAR     36  27  69 NE12      30.09R
PILOT MOUND      N/A     37  36  93 SE21        N/A
THE PAS        MOCLDY    39  27  60 E18G28    29.92R
THOMPSON       PTCLDY    27  21  80 NE15G22   30.21R WCI  15
WINNIPEG       LGT RAIN  41  39  93 SE17      29.92R
LYNN LAKE      CLEAR     25  19  80 E16G23    30.17R WCI  12
CHURCHILL      FLURRIES  19  14  79 N13G20    30.41R WCI   7
GILLAM         CLOUDY    25  19  80 E9        30.30R WCI  15
$$
                ***SASKATCHEWAN***

CITY           SKY/WX    TMP DP  RH WIND       PRES   REMARKS
ESTEVAN        LGT RAIN  43  43 100 SW3       29.60S
KINDERSLEY     MOCLDY    37  34  87 SW8       29.52R
LLOYDMINSTER   LGT RAIN  37  37 100 E15G24    29.50R
PRINCE ALBERT  LGT RAIN  39  37  93 E24G39    29.66R
REGINA         LGT RAIN  43  43 100 SW9       29.54S
YORKTON        LGT RAIN  37  36  93 E22G30    29.66F
N. BATTLEFORD  LGT RAIN  41  39  93 E21G26    29.52R
LA RONGE       CLOUDY    39  27  60 NE17G24   29.85S
SASKATOON      LGT RAIN  41  39  93 SE20G29   29.54R
SWIFT CURRENT  MOCLDY    41  37  87 W9        29.54R
$$
NOTE: THESE ARE AUTOMATED STATIONS WITH LIMITED QUALITY CONTROL
      "FAIR" INDICATES FEW OR NO CLOUDS BELOW 12,000 FEET WITH NO
      SIGNIFICANT WEATHER AND/OR OBSTRUCTIONS TO VISIBILITY.
      SKY/WX - SKY CONDITION AND SIGNIFICANT WEATHER.
      TMP - AIR TEMPERATURE.    DP   - DEWPOINT TEMPERATURE.
      RH  - RELATIVE HUMIDITY.  PRES - PRESSURE.
      HX  - HEAT INDEX.         WCI  - WIND CHILL INDEX.
$



USA.gov is the U.S. government's official web portal to all federal, state and local government web resources and services.